Holdrege, NE

8:45 PM CDT on July 24, 2017 (GMT -0500)
Brewster

Weather History for KHDE - December, 2013

Change the Weather History Date:

Monday, December 2, 2013

  Actual Average Record
Temperature  
Mean Temperature 50 °F -  
Max Temperature 62 °F 40 °F 71 °F (2012)
Min Temperature 37 °F 20 °F -5 °F (1985)
Degree Days  
Heating Degree Days 16    
Moisture  
Dew Point 28 °F    
Average Humidity 48    
Maximum Humidity 63    
Minimum Humidity 29    
Precipitation  
Precipitation 0.00 in - - ()
Sea Level Pressure  
Sea Level Pressure 29.62 in    
Wind  
Wind Speed 8 mph (WSW)    
Max Wind Speed 14 mph    
Max Gust Speed 12 mph    
Visibility 10 miles    
Events      
Averages and records for this station are not official NWS values.
T = Trace of Precipitation, MM = Missing Value Source: NWS Daily Summary

Daily Weather History Graph

Daily Weather History Graph

Search for Another Location

Airport or City:

Trip Planner

Search our weather history database for the weather conditions in past years. The results will help you decide how hot, cold, wet, or windy it might be!

Date:

Astronomy

Dec. 02, 2013 Rise Set
Actual Time 7:42 AM CST 5:11 PM CST
Civil Twilight 7:12 AM CST 5:41 PM CST
Nautical Twilight 6:38 AM CST 6:15 PM CST
Astronomical Twilight 6:05 AM CST 6:48 PM CST
Moon 7:09 AM CST (12/2) 5:15 PM CST (12/2)
Length of Visible Light 10h 29m
Length of Day
9h 28m
Waning Crescent, 0% of the Moon is Illuminated
Dec 2
Waning Crescent
Dec 2
New
Dec 9
First Quarter
Dec 17
Full
Dec 25
Last Quarter

Hourly Weather History & Observations

Time (CST) Temp. Windchill Dew Point Humidity Pressure Visibility Wind Dir Wind Speed Gust Speed Precip Events Conditions
12:15 AM 42.3 °F 38.6 °F 28.2 °F 58% 29.78 in 10.0 mi SW 5.8 mph - N/A   Scattered Clouds
12:35 AM 41.5 °F 38.6 °F 28.2 °F 59% 29.77 in 10.0 mi SW 4.6 mph - N/A   Scattered Clouds
12:55 AM 42.3 °F 38.6 °F 28.2 °F 58% 29.76 in 10.0 mi SW 5.8 mph - N/A   Mostly Cloudy
1:15 AM 42.4 °F 38.1 °F 28.0 °F 57% 29.76 in 10.0 mi WNW 6.9 mph - N/A   Mostly Cloudy
1:35 AM 40.5 °F 36.5 °F 27.3 °F 59% 29.76 in 10.0 mi WSW 5.8 mph - N/A   Scattered Clouds
1:55 AM 41.7 °F 37.3 °F 27.5 °F 57% 29.74 in 10.0 mi SW 6.9 mph - N/A   Scattered Clouds
2:15 AM 42.6 °F 38.4 °F 27.9 °F 56% 29.74 in 10.0 mi SW 6.9 mph - N/A   Mostly Cloudy
2:35 AM 44.4 °F 39.5 °F 27.5 °F 52% 29.74 in 10.0 mi WSW 9.2 mph - N/A   Overcast
2:55 AM 45.9 °F 40.0 °F 27.1 °F 48% 29.73 in 10.0 mi WSW 12.7 mph - N/A   Overcast
3:15 AM 46.4 °F 41.5 °F 26.6 °F 46% 29.72 in 10.0 mi WSW 10.4 mph - N/A   Overcast
3:35 AM 45.5 °F 40.3 °F 26.4 °F 47% 29.71 in 10.0 mi WSW 10.4 mph - N/A   Overcast
3:55 AM 44.1 °F 38.1 °F 26.6 °F 50% 29.71 in 10.0 mi WSW 11.5 mph - N/A   Mostly Cloudy
4:15 AM 44.8 °F 38.7 °F 25.9 °F 48% 29.70 in 10.0 mi West 12.7 mph - N/A   Overcast
4:35 AM 42.4 °F 37.0 °F 25.7 °F 52% 29.69 in 10.0 mi WSW 9.2 mph - N/A   Scattered Clouds
4:55 AM 41.4 °F 35.2 °F 25.7 °F 54% 29.69 in 10.0 mi West 10.4 mph - N/A   Clear
5:15 AM 40.3 °F 33.9 °F 26.1 °F 57% 29.69 in 10.0 mi WSW 10.4 mph - N/A   Clear
5:35 AM 40.1 °F 33.6 °F 25.7 °F 56% 29.68 in 10.0 mi West 10.4 mph - N/A   Clear
5:55 AM 39.4 °F 32.7 °F 25.7 °F 58% 29.68 in 10.0 mi West 10.4 mph - N/A   Clear
6:15 AM 38.8 °F 32.1 °F 25.5 °F 59% 29.67 in 10.0 mi West 10.4 mph - N/A   Clear
6:35 AM 38.3 °F 31.4 °F 25.3 °F 60% 29.68 in 10.0 mi West 10.4 mph - N/A   Clear
6:55 AM 38.5 °F 31.6 °F 25.3 °F 59% 29.68 in 10.0 mi West 10.4 mph - N/A   Clear
7:15 AM 38.3 °F 30.9 °F 25.3 °F 60% 29.68 in 10.0 mi West 11.5 mph - N/A   Clear
7:35 AM 38.3 °F 30.5 °F 25.5 °F 60% 29.69 in 10.0 mi West 12.7 mph - N/A   Clear
7:55 AM 38.3 °F 30.5 °F 25.7 °F 61% 29.69 in 10.0 mi West 12.7 mph - N/A   Clear
8:15 AM 37.8 °F 30.7 °F 26.2 °F 63% 29.68 in 10.0 mi West 10.4 mph - N/A   Clear
8:35 AM 40.6 °F 34.8 °F 27.5 °F 59% 29.68 in 10.0 mi West 9.2 mph - N/A   Clear
8:55 AM 43.5 °F 38.3 °F 28.8 °F 56% 29.68 in 10.0 mi West 9.2 mph - N/A   Clear
9:15 AM 46.6 °F - 30.0 °F 53% 29.67 in 10.0 mi West 10.4 mph - N/A   Clear
9:35 AM 47.7 °F - 30.2 °F 51% 29.67 in 10.0 mi West 10.4 mph - N/A   Clear
9:55 AM 48.6 °F - 30.6 °F 50% 29.67 in 10.0 mi West 11.5 mph - N/A   Clear
10:15 AM 51.1 °F - 31.1 °F 46% 29.67 in 10.0 mi West 10.4 mph - N/A   Clear
10:35 AM 53.6 °F - 31.1 °F 42% 29.67 in 10.0 mi West 11.5 mph - N/A   Clear
10:55 AM 55.4 °F - 31.1 °F 40% 29.67 in 10.0 mi West 9.2 mph - N/A   Clear
11:15 AM 54.5 °F - 30.7 °F 40% 29.66 in 10.0 mi WSW 6.9 mph - N/A   Clear
11:35 AM 53.6 °F - 30.2 °F 41% 29.64 in 10.0 mi WSW 9.2 mph - N/A   Clear
11:55 AM 53.4 °F - 30.4 °F 41% 29.63 in 10.0 mi West 9.2 mph - N/A   Clear
12:15 PM 53.8 °F - 29.8 °F 40% 29.62 in 10.0 mi WSW 12.7 mph - N/A   Clear
12:35 PM 55.0 °F - 30.4 °F 39% 29.61 in 10.0 mi WSW 13.8 mph - N/A   Clear
12:55 PM 57.6 °F - 30.4 °F 36% 29.60 in 10.0 mi West 10.4 mph - N/A   Clear
1:15 PM 59.0 °F - 30.7 °F 34% 29.59 in 10.0 mi WSW 8.1 mph - N/A   Clear
1:35 PM 59.7 °F - 31.1 °F 34% 29.57 in 10.0 mi WSW 6.9 mph - N/A   Clear
1:55 PM 60.8 °F - 30.6 °F 32% 29.56 in 10.0 mi WSW 8.1 mph - N/A   Clear
2:15 PM 61.7 °F - 30.7 °F 31% 29.55 in 10.0 mi WSW 8.1 mph - N/A   Clear
2:35 PM 62.8 °F - 30.7 °F 30% 29.55 in 10.0 mi WSW 9.2 mph - N/A   Clear
2:55 PM 62.8 °F - 30.2 °F 29% 29.54 in 10.0 mi WSW 9.2 mph - N/A   Clear
3:15 PM 62.8 °F - 30.4 °F 30% 29.54 in 10.0 mi SW 8.1 mph - N/A   Clear
3:35 PM 62.8 °F - 30.4 °F 30% 29.53 in 10.0 mi SW 8.1 mph - N/A   Clear
3:55 PM 62.8 °F - 29.7 °F 29% 29.54 in 10.0 mi WSW 8.1 mph 11.5 mph N/A   Clear
4:15 PM 61.3 °F - 30.0 °F 31% 29.54 in 10.0 mi WSW 6.9 mph - N/A   Clear
4:35 PM 60.1 °F - 29.8 °F 32% 29.54 in 10.0 mi WSW 6.9 mph - N/A   Clear
4:55 PM 57.9 °F - 28.9 °F 33% 29.54 in 10.0 mi West 8.1 mph - N/A   Clear
5:15 PM 55.6 °F - 28.4 °F 35% 29.54 in 10.0 mi WNW 9.2 mph - N/A   Clear
5:35 PM 52.5 °F - 28.4 °F 39% 29.54 in 10.0 mi West 5.8 mph - N/A   Clear
5:55 PM 52.3 °F - 28.4 °F 40% 29.54 in 10.0 mi WSW 5.8 mph - N/A   Clear
6:15 PM 51.1 °F - 28.6 °F 42% 29.53 in 10.0 mi SW 4.6 mph - N/A   Clear
6:35 PM 50.7 °F - 28.8 °F 43% 29.53 in 10.0 mi SW 4.6 mph - N/A   Clear
6:55 PM 48.7 °F - 28.6 °F 46% 29.53 in 10.0 mi SW 4.6 mph - N/A   Clear
7:15 PM 48.9 °F - 28.4 °F 45% 29.53 in 10.0 mi SW 5.8 mph - N/A   Clear
7:35 PM 44.6 °F 41.4 °F 28.0 °F 52% 29.53 in 10.0 mi SSW 5.8 mph - N/A   Clear
7:55 PM 44.2 °F 40.3 °F 28.0 °F 53% 29.53 in 10.0 mi South 6.9 mph - N/A   Clear
8:15 PM 46.0 °F 41.9 °F 28.9 °F 51% 29.53 in 10.0 mi SSW 8.1 mph - N/A   Clear
8:35 PM 46.9 °F - 29.1 °F 50% 29.52 in 10.0 mi SSW 6.9 mph - N/A   Clear
8:55 PM 46.2 °F 42.7 °F 29.1 °F 51% 29.52 in 10.0 mi SSW 6.9 mph - N/A   Clear
9:15 PM 45.9 °F 42.9 °F 28.6 °F 51% 29.53 in 10.0 mi SW 5.8 mph - N/A   Clear
9:35 PM 45.5 °F 41.8 °F 28.4 °F 51% 29.52 in 10.0 mi SSW 6.9 mph - N/A   Clear
9:55 PM 44.4 °F 42.0 °F 28.2 °F 53% 29.52 in 10.0 mi WSW 4.6 mph - N/A   Clear
10:15 PM 43.7 °F 41.1 °F 28.0 °F 54% 29.52 in 10.0 mi WSW 4.6 mph - N/A   Clear
10:35 PM 45.1 °F 41.4 °F 28.2 °F 52% 29.51 in 10.0 mi West 6.9 mph - N/A   Clear
10:55 PM 44.6 °F 40.2 °F 28.4 °F 53% 29.51 in 10.0 mi West 8.1 mph - N/A   Clear
11:15 PM 44.4 °F 42.9 °F 28.2 °F 53% 29.50 in 10.0 mi WNW 3.5 mph - N/A   Clear
11:35 PM 44.1 °F 40.8 °F 27.5 °F 52% 29.50 in 10.0 mi West 5.8 mph - N/A   Clear
11:55 PM 43.0 °F 38.2 °F 27.9 °F 55% 29.52 in 10.0 mi WNW 8.1 mph - N/A   Clear